Weather History for Wise, VA

Change the Weather History Date:

Sunday, November 11, 2012

  Actual Average Record
Temperature  
Mean Temperature 59 °F -  
Max Temperature 68 °F 51 °F 68 °F (2012)
Min Temperature 50 °F 34 °F 21 °F (1996)
Degree Days  
Heating Degree Days 6    
Growing Degree Days 9 (Base 50)    
Moisture  
Dew Point 35 °F    
Average Humidity 42    
Maximum Humidity 63    
Minimum Humidity 26    
Precipitation  
Precipitation 0.00 in - - ()
Sea Level Pressure  
Sea Level Pressure 30.33 in    
Wind  
Wind Speed 9 mph (South)    
Max Wind Speed 18 mph    
Max Gust Speed 30 mph    
Visibility 10 miles    
Events      
Averages and records for this station are not official NWS values.
T = Trace of Precipitation, MM = Missing Value Source: NWS Daily Summary

Daily Weather History Graph

Daily Weather History Graph

Search for Another Location

Airport:

Trip Planner

Search our weather history database for the weather conditions in past years. The results will help you decide how hot, cold, wet, or windy it might be!

Date:

Astronomy

Nov. 11, 2012 Rise Set
Actual Time 7:04 AM EST 5:23 PM EST
Civil Twilight 6:37 AM EST 5:50 PM EST
Nautical Twilight 6:06 AM EST 6:21 PM EST
Astronomical Twilight 5:35 AM EST 6:52 PM EST
Moon 4:20 AM EST (11/11) 3:43 PM EST (11/11)
Length of Visible Light 11h 12m
Length of Day
10h 18m
Waning Crescent, 7% of the Moon is Illuminated
Nov 11
Waning Crescent
Nov 13
New
Nov 20
First Quarter
Nov 28
Full
Dec 6
Last Quarter

Hourly Weather History & Observations

Time (EST) Temp. Dew Point Humidity Pressure Visibility Wind Dir Wind Speed Gust Speed Precip Events Conditions
12:35 AM 57.2 °F 32.0 °F 38% 30.32 in 10.0 mi South 6.9 mph - N/A   Clear
12:55 AM 55.4 °F 32.0 °F 41% 30.32 in 10.0 mi South 5.8 mph - N/A   Clear
1:15 AM 53.6 °F 32.0 °F 44% 30.32 in 10.0 mi SSW 5.8 mph - N/A   Clear
1:35 AM 55.4 °F 32.0 °F 41% 30.31 in 10.0 mi South 5.8 mph - N/A   Clear
1:55 AM 55.4 °F 32.0 °F 41% 30.32 in 10.0 mi SSW 8.1 mph - N/A   Clear
2:15 AM 53.6 °F 32.0 °F 44% 30.31 in 10.0 mi South 8.1 mph - N/A   Clear
2:35 AM 53.6 °F 32.0 °F 44% 30.31 in 10.0 mi South 5.8 mph - N/A   Clear
2:55 AM 53.6 °F 32.0 °F 44% 30.31 in 10.0 mi South 5.8 mph - N/A   Clear
3:15 AM 53.6 °F 32.0 °F 44% 30.31 in 10.0 mi South 8.1 mph - N/A   Clear
3:35 AM 53.6 °F 32.0 °F 44% 30.31 in 10.0 mi SSW 6.9 mph - N/A   Clear
3:55 AM 51.8 °F 32.0 °F 47% 30.31 in 10.0 mi South 8.1 mph - N/A   Clear
4:15 AM 50.0 °F 32.0 °F 50% 30.31 in 10.0 mi SSW 5.8 mph - N/A   Clear
4:35 AM 50.0 °F 32.0 °F 50% 30.32 in 10.0 mi SSW 4.6 mph - N/A   Clear
4:55 AM 50.0 °F 30.2 °F 47% 30.33 in 10.0 mi South 3.5 mph - N/A   Clear
5:15 AM 51.8 °F 30.2 °F 44% 30.33 in 10.0 mi South 4.6 mph - N/A   Clear
5:35 AM 51.8 °F 30.2 °F 44% 30.33 in 10.0 mi South 3.5 mph - N/A   Clear
5:55 AM 51.8 °F 30.2 °F 44% 30.34 in 10.0 mi Calm Calm - N/A   Clear
6:35 AM 50.0 °F 30.2 °F 47% 30.36 in 10.0 mi Calm Calm - N/A   Clear
6:55 AM 50.0 °F 30.2 °F 47% 30.37 in 10.0 mi Calm Calm - N/A   Clear
7:15 AM 51.8 °F 30.2 °F 44% 30.37 in 10.0 mi Calm Calm - N/A   Clear
7:35 AM 51.8 °F 28.4 °F 41% 30.37 in 10.0 mi South 4.6 mph - N/A   Clear
7:55 AM 53.6 °F 28.4 °F 38% 30.39 in 10.0 mi South 5.8 mph - N/A   Clear
8:35 AM 59.0 °F 30.2 °F 34% 30.39 in 10.0 mi SSE 8.1 mph - N/A   Clear
9:15 AM 59.0 °F 30.2 °F 34% 30.39 in 10.0 mi SSE 9.2 mph - N/A   Clear
9:35 AM 62.6 °F 30.2 °F 30% 30.40 in 10.0 mi South 10.4 mph - N/A   Clear
9:55 AM 62.6 °F 30.2 °F 30% 30.40 in 10.0 mi South 6.9 mph - N/A   Clear
10:15 AM 60.8 °F 28.4 °F 29% 30.41 in 10.0 mi South 6.9 mph - N/A   Clear
10:35 AM 62.6 °F 30.2 °F 30% 30.40 in 10.0 mi South 8.1 mph - N/A   Clear
10:55 AM 64.4 °F 30.2 °F 28% 30.40 in 10.0 mi South 12.7 mph 17.3 mph N/A   Clear
11:15 AM 64.4 °F 32.0 °F 30% 30.40 in 10.0 mi South 15.0 mph 21.9 mph N/A   Clear
11:35 AM 66.2 °F 32.0 °F 28% 30.38 in 10.0 mi South 18.4 mph 26.5 mph N/A   Clear
11:55 AM 66.2 °F 32.0 °F 28% 30.38 in 10.0 mi SSE 16.1 mph 23.0 mph N/A   Clear
12:15 PM 68.0 °F 32.0 °F 26% 30.37 in 10.0 mi South 15.0 mph 19.6 mph N/A   Clear
12:35 PM 66.2 °F 32.0 °F 28% 30.36 in 10.0 mi South 15.0 mph 24.2 mph N/A   Clear
1:15 PM 68.0 °F 32.0 °F 26% 30.34 in 10.0 mi South 11.5 mph 21.9 mph N/A   Clear
1:35 PM 68.0 °F 32.0 °F 26% 30.33 in 10.0 mi South 15.0 mph 23.0 mph N/A   Clear
1:55 PM 68.0 °F 33.8 °F 28% 30.33 in 10.0 mi SSE 12.7 mph 18.4 mph N/A   Clear
2:15 PM 68.0 °F 33.8 °F 28% 30.32 in 10.0 mi SSE 11.5 mph 21.9 mph N/A   Clear
2:35 PM 68.0 °F 33.8 °F 28% 30.31 in 10.0 mi South 13.8 mph 19.6 mph N/A   Clear
2:55 PM 68.0 °F 33.8 °F 28% 30.30 in 10.0 mi South 15.0 mph 20.7 mph N/A   Clear
3:15 PM 68.0 °F 33.8 °F 28% 30.29 in 10.0 mi South 12.7 mph 21.9 mph N/A   Clear
3:35 PM 68.0 °F 33.8 °F 28% 30.30 in 10.0 mi South 9.2 mph - N/A   Clear
3:55 PM 68.0 °F 33.8 °F 28% 30.30 in 10.0 mi South 10.4 mph - N/A   Clear
4:15 PM 66.2 °F 33.8 °F 30% 30.30 in 10.0 mi South 10.4 mph 16.1 mph N/A   Clear
4:35 PM 66.2 °F 33.8 °F 30% 30.30 in 10.0 mi South 9.2 mph - N/A   Clear
4:55 PM 64.4 °F 33.8 °F 32% 30.30 in 10.0 mi South 6.9 mph 18.4 mph N/A   Clear
5:15 PM 64.4 °F 33.8 °F 32% 30.29 in 10.0 mi South 9.2 mph - N/A   Clear
5:35 PM 64.4 °F 35.6 °F 34% 30.29 in 10.0 mi SSE 10.4 mph 20.7 mph N/A   Clear
5:55 PM 62.6 °F 37.4 °F 39% 30.30 in 10.0 mi SSE 11.5 mph 20.7 mph N/A   Clear
6:15 PM 62.6 °F 41.0 °F 45% 30.30 in 10.0 mi South 15.0 mph 24.2 mph N/A   Clear
6:35 PM 62.6 °F 42.8 °F 48% 30.31 in 10.0 mi South 12.7 mph 25.3 mph N/A   Clear
6:55 PM 60.8 °F 44.6 °F 55% 30.31 in 10.0 mi SSE 16.1 mph 27.6 mph N/A   Clear
7:15 PM 60.8 °F 44.6 °F 55% 30.30 in 10.0 mi South 13.8 mph 25.3 mph N/A   Clear
7:35 PM 59.0 °F 44.6 °F 59% 30.30 in 10.0 mi South 18.4 mph 27.6 mph N/A   Clear
7:55 PM 59.0 °F 44.6 °F 59% 30.30 in 10.0 mi South 18.4 mph 27.6 mph N/A   Clear
8:15 PM 59.0 °F 44.6 °F 59% 30.31 in 10.0 mi SSE 15.0 mph 24.2 mph N/A   Clear
8:35 PM 59.0 °F 44.6 °F 59% 30.30 in 10.0 mi SSE 15.0 mph 23.0 mph N/A   Clear
8:55 PM 59.0 °F 44.6 °F 59% 30.30 in 10.0 mi South 11.5 mph 25.3 mph N/A   Clear
9:15 PM 59.0 °F 44.6 °F 59% 30.31 in 10.0 mi South 17.3 mph 28.8 mph N/A   Clear
9:35 PM 59.0 °F 44.6 °F 59% 30.30 in 10.0 mi South 18.4 mph 25.3 mph N/A   Clear
9:55 PM 59.0 °F 44.6 °F 59% 30.29 in 10.0 mi South 17.3 mph 29.9 mph N/A   Clear
10:15 PM 59.0 °F 44.6 °F 59% 30.29 in 10.0 mi South 17.3 mph 25.3 mph N/A   Clear
10:35 PM 59.0 °F 46.4 °F 63% 30.29 in 10.0 mi South 11.5 mph 23.0 mph N/A   Clear
10:55 PM 59.0 °F 46.4 °F 63% 30.29 in 10.0 mi South 15.0 mph 24.2 mph N/A   Clear
11:15 PM 59.0 °F 46.4 °F 63% 30.28 in 10.0 mi SSE 16.1 mph 24.2 mph N/A   Clear
11:35 PM 59.0 °F 46.4 °F 63% 30.28 in 10.0 mi South 16.1 mph 27.6 mph N/A   Clear
11:55 PM 59.0 °F 46.4 °F 63% 30.27 in 10.0 mi South 17.3 mph 25.3 mph N/A   Clear